Theta_e
345 342 342 338 335 333 333 333 333 333 334 337 339 339 337 336 337 337 336 337 336 340 339 338 337 338 338 338 337 336 336 337 336 335 335 335 336 335 335 335 336 337 335
345 345 342 339 336 334 333 333 333 333 335 336 337 339 338 340 339 337 336 337 336 338 335 334 335 336 336 336 336 335 335 336 335 336 336 335 334 335 336 335 336 336 333
345 343 342 340 338 336 334 333 333 332 333 335 336 338 340 342 341 338 337 336 335 334 332 334 335 335 335 335 335 335 335 336 335 336 337 339 339 335 335 334 334 334 332
344 343 342 341 340 338 336 334 334 333 332 333 336 339 340 339 337 335 335 335 334 332 332 335 335 335 335 335 335 335 335 335 335 335 340 339 339 334 335 334 334 333 331
342 343 345 344 342 340 339 337 335 334 333 333 332 332 332 331 330 331 332 332 332 331 333 336 336 335 335 335 335 335 334 333 334 337 340 339 338 336 334 334 334 333 332
338 341 342 343 345 346 344 341 339 335 334 334 334 333 332 331 330 330 331 331 332 334 335 336 335 335 335 335 334 333 333 335 335 338 338 337 338 334 333 333 334 334 332
335 336 339 340 341 342 344 344 343 342 339 336 335 335 334 335 335 335 336 336 336 336 335 334 335 335 334 335 334 332 335 336 336 336 337 338 338 331 333 333 333 333 332
327 326 332 333 338 340 340 342 344 343 342 339 337 336 336 336 336 336 336 336 337 337 335 334 334 334 334 333 334 333 335 336 336 336 337 337 335 331 333 333 333 333 332
314 317 319 321 327 337 340 340 340 340 342 342 340 339 337 337 337 337 336 336 337 337 336 334 334 333 333 332 333 333 333 333 335 335 336 337 332 332 334 333 333 333 331
306 306 306 308 313 320 325 338 339 339 341 340 341 340 338 338 338 337 337 336 337 337 337 336 334 333 333 331 332 332 333 334 336 334 335 337 332 332 336 333 332 332 330
303 302 302 303 305 307 309 315 325 334 338 338 338 338 338 339 341 340 339 337 336 337 337 336 334 333 333 331 331 332 333 335 335 334 335 335 333 331 336 333 332 332 330
298 299 299 300 302 304 304 306 308 312 317 328 336 338 339 338 338 338 338 337 336 337 337 337 335 332 332 335 333 332 333 334 333 334 335 333 333 330 334 334 332 332 331
297 297 297 298 300 302 303 304 304 305 306 308 310 318 331 338 339 338 338 339 338 338 338 339 338 335 335 335 334 334 333 332 333 335 333 332 332 329 330 332 332 331 331
296 296 296 296 298 299 300 302 302 303 303 304 305 306 310 326 334 337 338 338 342 339 341 339 339 338 335 333 333 332 329 331 332 335 334 332 332 329 329 329 329 330 330
295 295 294 295 297 298 298 298 299 300 302 302 303 304 304 306 314 326 334 339 338 339 339 340 340 338 336 334 332 332 331 330 331 334 334 332 332 330 329 329 329 329 329
294 294 294 294 294 294 295 297 297 298 299 300 301 302 303 304 307 308 315 328 337 338 338 339 338 338 337 335 333 332 331 331 330 332 335 334 332 331 329 328 329 329 329
293 293 293 293 293 294 294 295 296 297 298 299 300 301 302 304 306 308 310 310 321 329 338 337 338 336 335 336 334 332 331 330 330 330 333 335 334 332 330 328 328 327 328
293 293 293 293 293 293 294 294 295 295 296 297 298 300 301 303 304 306 308 311 312 314 328 337 337 335 335 335 334 333 332 331 330 330 330 334 334 334 332 329 328 327 326
292 292 292 292 293 293 293 294 294 295 295 296 297 299 300 300 301 303 305 308 310 312 320 334 336 334 333 334 334 333 332 331 331 330 330 331 334 334 333 331 329 328 327
292 292 292 292 292 293 293 294 294 294 295 295 296 296 297 298 299 301 304 306 308 312 314 325 332 333 330 334 334 333 333 331 331 331 331 331 332 334 334 333 332 330 328
292 291 291 292 292 292 292 293 293 293 294 294 295 295 296 297 298 299 301 301 303 305 311 314 318 333 334 333 332 333 333 332 331 331 332 333 333 334 334 333 333 332 330
291 290 290 291 291 291 291 292 292 292 293 293 293 294 295 295 296 298 299 299 300 303 306 312 316 323 332 329 332 332 336 333 331 331 331 332 334 333 333 333 333 333 332
290 289 290 290 291 290 290 291 291 291 292 292 291 292 292 294 295 296 297 298 300 302 304 308 314 321 330 330 331 331 333 337 333 331 330 331 331 333 333 332 332 332 332
289 289 289 290 290 290 289 290 290 290 290 291 291 291 291 292 293 295 296 296 297 299 301 305 311 320 325 328 330 331 331 331 333 337 331 331 331 332 332 332 331 331 331
288 289 289 289 289 289 289 289 289 290 290 290 290 290 290 291 292 293 293 294 295 298 300 303 306 311 318 329 330 330 331 331 328 329 335 332 332 331 332 331 331 330 330
287 289 289 289 289 288 289 289 289 289 289 289 289 289 289 290 290 291 291 292 292 294 296 298 300 304 309 317 328 330 329 327 328 327 329 332 332 332 332 332 331 331 330
Wind_Speed
4 5 7 7 8 9 9 10 11 13 15 16 16 17 17 17 17 17 16 17 15 12 9 8 7 7 7 7 7 7 9 11 11 10 10 12 12 11 12 13 13 13 17
6 7 9 5 5 6 6 7 9 10 13 14 15 15 17 16 16 16 16 16 13 11 9 7 7 7 7 8 8 9 10 10 10 11 11 11 11 11 12 13 14 15 17
14 11 8 4 4 3 3 4 6 8 10 12 14 14 15 16 15 15 16 15 12 10 8 8 7 7 7 8 10 10 11 11 12 12 11 9 10 10 12 14 14 16 17
15 12 9 5 3 2 1 2 3 5 8 11 13 13 13 13 14 15 17 15 13 11 9 8 7 8 7 8 10 11 12 12 10 9 7 8 9 10 12 13 14 15 16
19 17 15 10 7 5 2 2 4 5 6 8 11 12 12 12 13 15 16 15 14 12 10 10 9 8 8 9 10 11 11 9 8 7 7 7 8 8 11 12 13 14 16
23 20 15 13 11 9 8 5 4 4 5 7 9 10 11 12 13 14 14 14 14 12 11 10 10 9 9 10 11 11 9 8 8 7 7 7 7 9 11 12 13 14 15
22 20 18 14 13 12 10 8 7 6 5 7 8 9 10 12 13 13 13 14 14 14 13 12 11 10 11 11 11 12 11 8 7 7 7 7 7 8 10 11 13 14 14
24 23 22 19 14 10 8 9 8 6 8 8 9 9 10 11 12 13 13 13 14 14 14 13 13 13 13 12 13 13 12 10 8 8 8 8 8 9 10 12 13 14 15
25 24 24 23 20 15 12 10 8 7 8 9 11 10 11 12 13 14 14 14 15 15 14 14 15 15 15 14 14 15 13 12 9 8 10 9 10 10 11 13 14 15 16
27 27 26 24 21 18 18 14 9 7 8 8 8 12 14 14 14 15 16 16 16 16 16 16 17 17 17 16 16 16 15 13 10 9 12 10 11 11 12 14 15 16 15
27 27 26 26 24 21 18 17 14 11 8 6 8 9 12 15 15 16 18 19 19 19 18 18 19 19 18 17 17 16 16 12 10 9 12 13 12 12 13 14 15 18 17
26 25 26 27 27 24 21 20 19 17 15 11 10 8 9 14 16 20 21 21 22 21 21 21 21 21 19 16 17 18 17 14 13 12 12 14 14 13 15 14 17 18 19
20 22 24 26 27 26 24 24 22 21 20 16 15 14 13 11 15 20 22 22 23 22 23 22 22 22 20 18 17 17 17 18 14 13 16 16 16 16 16 15 17 19 20
21 22 23 25 27 27 25 23 23 23 23 22 21 18 17 15 14 17 21 25 24 25 26 28 22 22 23 23 21 22 23 20 17 15 17 19 18 18 15 18 18 20 20
20 21 22 23 27 27 25 24 22 22 22 24 22 20 20 19 19 20 18 23 26 25 26 28 30 23 24 24 23 25 23 23 21 18 18 20 20 20 19 18 20 21 21
20 22 21 21 23 23 23 24 23 22 22 21 21 23 23 20 20 21 25 22 23 29 29 27 31 34 26 25 26 27 25 23 23 21 18 20 22 23 22 20 21 22 23
18 18 21 20 22 22 21 21 21 22 22 20 21 22 21 20 20 21 22 26 29 24 31 32 31 34 29 27 28 26 27 27 24 24 22 21 22 25 26 23 22 21 24
17 20 20 21 23 23 22 20 19 20 19 20 21 21 21 22 22 21 21 21 25 29 27 34 33 26 28 27 27 28 27 26 27 26 25 22 21 21 27 29 25 23 23
18 21 23 23 25 23 21 19 20 20 21 21 21 22 24 24 23 23 22 23 23 25 27 28 28 26 26 28 29 30 29 29 29 27 27 26 25 23 21 31 32 28 25
17 18 19 19 22 21 21 21 21 22 21 22 21 24 24 24 26 25 23 23 22 21 26 25 34 37 36 32 29 31 31 30 30 30 30 28 28 26 25 24 29 33 31
18 19 19 19 21 23 24 26 25 26 23 25 25 27 27 26 26 25 26 25 24 24 24 29 33 33 31 31 20 23 28 28 30 32 31 29 29 28 26 27 28 26 30
17 17 17 19 20 21 22 21 23 23 19 23 27 28 28 29 27 27 28 28 27 26 26 26 26 27 34 34 24 17 7 19 29 33 31 31 32 29 28 28 29 29 29
16 16 16 17 18 19 21 20 21 18 20 21 27 29 34 31 29 28 27 31 28 25 24 27 28 26 24 26 38 20 4 11 12 23 34 32 33 33 32 29 31 30 30
14 13 13 15 16 18 20 20 21 20 22 24 24 26 29 30 30 29 28 30 32 31 29 29 26 27 28 27 29 39 37 15 7 9 15 29 34 35 35 33 33 34 32
12 12 14 16 18 19 19 19 19 19 20 21 25 27 28 30 28 28 33 34 32 32 30 30 31 29 29 28 30 21 36 28 22 0 6 7 24 36 37 36 38 40 36
13 14 15 17 18 19 19 19 20 21 23 25 28 27 30 31 32 32 35 33 34 31 31 30 31 31 31 29 30 31 24 10 12 9 11 13 13 28 37 36 35 38 39
Wind_Direction
355 235 180 169 160 150 137 134 134 133 141 148 151 152 154 156 158 159 161 161 161 160 158 148 147 148 145 147 139 133 134 140 136 134 131 125 125 127 123 122 120 124 129
339 161 167 162 154 146 138 140 139 137 142 149 154 158 160 165 168 169 169 169 167 167 167 160 158 152 154 153 141 145 145 150 138 129 126 126 130 132 132 133 131 135 137
74 102 120 117 102 109 134 149 143 146 148 153 159 162 167 171 176 178 176 175 177 181 179 171 169 159 162 157 150 152 153 148 141 135 132 134 137 139 143 143 144 145 145
63 71 72 66 67 84 150 192 179 168 163 161 165 170 175 182 183 183 181 186 188 191 192 186 182 173 172 163 158 158 156 151 151 147 146 141 145 152 152 152 153 153 155
50 52 45 42 34 15 334 253 225 204 187 174 172 175 182 186 187 186 188 188 192 199 197 193 193 186 178 168 165 162 158 163 163 156 158 154 155 167 161 160 160 161 158
57 61 54 47 43 26 2 336 299 249 220 201 189 184 190 191 195 194 196 195 198 202 203 200 201 194 189 177 175 173 171 171 167 171 177 185 172 179 173 170 167 170 174
52 52 52 52 43 33 26 8 342 322 278 246 221 210 206 205 206 207 209 205 206 207 207 206 209 204 198 192 190 186 187 177 190 201 195 192 187 191 186 181 176 176 171
48 45 47 47 48 48 43 19 3 340 303 268 249 241 233 226 224 222 221 217 215 216 216 213 213 213 206 204 200 202 203 205 214 217 216 204 207 200 192 187 184 179 173
55 48 45 41 40 48 47 41 36 347 318 291 271 253 249 247 242 239 234 227 224 224 225 222 220 219 213 214 208 207 215 218 220 230 221 214 213 205 199 197 191 185 178
50 43 39 39 38 33 35 36 30 23 16 333 292 283 265 252 250 248 245 240 234 231 231 232 231 226 220 217 219 212 215 223 235 230 211 218 214 207 206 205 197 191 193
37 31 27 27 30 30 27 27 29 31 17 351 344 316 280 276 265 254 248 246 242 240 237 234 235 234 230 225 224 219 217 222 231 227 207 217 215 214 213 210 201 199 197
16 19 17 18 19 20 18 17 17 15 15 8 349 328 314 301 277 267 264 256 250 246 244 240 236 235 234 228 225 222 221 226 231 223 218 223 219 218 218 215 207 207 201
9 14 14 14 16 17 14 11 8 6 2 359 354 343 317 309 292 286 272 261 253 249 243 241 238 234 230 224 224 221 220 224 231 227 225 224 220 218 219 218 214 217 211
12 10 11 12 12 14 13 11 7 2 359 353 348 344 335 318 306 290 282 273 258 246 242 238 234 235 236 232 227 227 225 221 225 228 223 224 223 220 219 218 221 221 217
14 8 10 11 10 11 11 7 5 3 360 353 347 343 339 326 309 296 299 275 274 257 247 239 237 236 241 239 234 231 231 226 224 227 223 222 221 220 220 221 223 223 221
10 8 7 9 8 9 10 8 5 2 357 356 352 346 340 333 322 310 292 289 279 264 254 241 242 240 236 239 235 231 233 233 226 225 226 222 221 221 221 221 223 223 222
10 5 8 7 6 10 10 9 5 0 358 354 350 348 346 340 329 319 306 296 281 298 261 251 237 238 237 234 237 234 228 234 231 227 226 224 224 223 223 221 221 224 229
12 10 8 9 8 10 10 8 7 0 358 352 349 346 345 341 335 324 314 305 303 299 300 249 243 228 236 237 241 234 234 227 233 227 226 224 223 220 225 222 221 221 227
17 13 10 8 7 6 7 9 8 3 360 356 350 348 340 336 335 327 318 311 306 300 279 275 241 212 227 237 239 241 231 233 228 230 226 224 224 222 222 226 224 223 224
19 17 13 9 6 6 7 9 9 4 2 358 354 345 340 336 335 329 320 317 314 300 298 296 260 243 226 220 229 235 234 233 230 228 227 223 226 226 227 221 225 225 226
15 15 12 9 9 11 10 8 5 1 360 356 351 346 344 340 334 332 324 320 317 306 298 292 291 246 214 214 233 235 241 235 234 229 226 223 226 226 228 225 223 224 228
5 8 8 9 11 14 12 7 5 359 353 349 345 344 343 341 337 333 327 320 315 308 304 298 289 294 239 214 214 222 214 229 233 230 224 222 225 225 227 226 223 224 224
7 6 5 6 12 15 11 6 4 359 356 353 348 341 339 338 337 334 329 326 318 315 304 293 289 276 262 225 218 217 201 234 217 220 222 220 225 225 224 223 225 223 224
4 5 6 10 15 14 12 9 4 0 351 345 342 337 335 335 333 336 332 334 327 321 312 304 296 281 268 242 230 217 221 244 209 201 217 219 221 224 223 222 224 226 222
7 9 9 14 20 15 11 7 3 357 349 343 347 343 340 337 335 338 338 334 329 322 313 309 305 303 298 248 243 243 231 214 245 127 252 209 221 223 224 221 223 230 227
12 15 14 16 16 13 9 7 6 359 354 351 351 346 343 339 337 342 338 335 330 324 321 315 309 305 301 295 251 242 232 212 211 229 240 258 221 221 221 219 221 225 227